This demonstration page uses our WeatherBlox Daily Observations layout. Learn more.

Left ArrowRight Arrow

39.12711, -84.51439

Hourly Observations for December 8, 2021

Temp ( °F °C ) Dew Point ( °F °C ) Humidity (%) Winds ( mph kmh ) Pressure ( in mb ) Visibility ( mi km ) Precip ( " mm )
12:53 am 00:53 Mostly Cloudy with Light Snow 25 -3.9 24 -4.4 96 96 N N/A 30.14 1021 1 2 0.00 0.00
1:53 am 01:53 Cloudy with Light Snow 25 -3.9 24 -4.4 96 96 N N/A 30.13 1020 2 2 0.00 0.00
2:25 am 02:25 Cloudy with Light Snow 25 -3.9 24 -4.4 96 96 NNE 3 6 30.15 1021 3 4 0.00 0.00
2:29 am 02:29 Cloudy with Light Snow 25 -3.9 24 -4.4 96 96 NE 3 6 30.14 1021 4 6 0.00 0.00
2:53 am 02:53 Cloudy 26 -3.3 24 -4.4 92 92 N N/A 30.12 1020 10 16 0.00 0.00
3:53 am 03:53 Cloudy 26 -3.3 25 -3.9 96 96 S 3 6 30.10 1019 10 16 N/A
4:21 am 04:21 Cloudy 27 -2.8 24 -4.4 89 89 N N/A 30.10 1019 10 16 N/A
4:53 am 04:53 Cloudy 27 -2.8 24 -4.4 89 89 N N/A 30.06 1018 10 16 N/A
5:53 am 05:53 Cloudy 27 -2.8 25 -3.9 92 92 S 5 7 30.07 1018 10 16 N/A
6:34 am 06:34 Cloudy 27 -2.8 25 -3.9 92 92 S 5 7 30.09 1019 10 16 N/A
6:53 am 06:53 Cloudy 27 -2.8 25 -3.9 92 92 S 5 7 30.07 1018 10 16 N/A
7:53 am 07:53 Partly Cloudy 26 -3.3 24 -4.4 92 92 S 6 9 30.06 1018 10 16 N/A
8:53 am 08:53 Mostly Cloudy 28 -2.2 25 -3.9 88 88 SSW 6 9 30.06 1018 10 16 N/A
9:53 am 09:53 Mostly Sunny 29 -1.7 25 -3.9 85 85 S 6 9 30.07 1018 10 16 N/A
10:53 am 10:53 Sunny 31 -0.6 25 -3.9 79 79 S 7 11 30.07 1018 10 16 N/A
11:53 am 11:53 Sunny 35 1.7 27 -2.8 72 72 SSW 5 7 30.05 1018 10 16 N/A
12:53 pm 12:53 Sunny 39 3.9 25 -3.9 57 57 SW 7 11 30.02 1017 10 16 N/A
1:53 pm 13:53 Sunny 40 4.4 25 -3.9 55 55 SW 10 17 30.02 1017 10 16 N/A
2:53 pm 14:53 Sunny 41 5 24 -4.4 51 51 WSW 13 20 30.01 1016 10 16 N/A
3:53 pm 15:53 Mostly Sunny 41 5 24 -4.4 51 51 WSW 10 17 30.04 1017 10 16 N/A
4:53 pm 16:53 Mostly Sunny 39 3.9 24 -4.4 55 55 W 12 19 30.05 1018 10 16 N/A
5:53 pm 17:53 Clear 36 2.2 24 -4.4 62 62 N N/A 30.07 1018 10 16 N/A
6:53 pm 18:53 Clear 32 undefined 26 -3.3 79 79 N N/A 30.10 1019 10 16 N/A
7:53 pm 19:53 Clear 29 -1.7 25 -3.9 85 85 N N/A 30.12 1020 10 16 N/A
8:53 pm 20:53 Clear 27 -2.8 24 -4.4 89 89 N N/A 30.13 1020 10 16 N/A
9:53 pm 21:53 Clear 25 -3.9 25 -3.9 100 100 N N/A 30.12 1020 10 16 N/A
10:53 pm 22:53 Clear 25 -3.9 23 -5 92 92 N N/A 30.13 1020 10 16 N/A
11:53 pm 23:53 Clear 25 -3.9 23 -5 92 92 NE 3 6 30.12 1020 9 14 N/A

Powered by AerisWeather